Location: G�ndlingen
(48.0142°N, 7.6396°E)
Time: 18:43:41
(UTC+00:00)

Cosmos 2360 Rocket - Pass Details

Date: 05 July 2020
Orbit: 832 x 846 km, 71.0° (Epoch: 12 August)

Event Time Altitude Azimuth Distance (km) Brightness Sun altitude
Rises 20:31:58 0° 207° (SSW) 3,376 5.1 -8.4°
Reaches altitude 10° 20:34:23 10° 207° (SSW) 2,447 4.4 -8.6°
Maximum altitude 20:40:01 87° 296° (WNW) 849 2.3 -9.3°
Drops below altitude 10° 20:45:43 10° 27° (NNE) 2,473 5.0 -9.9°
Sets 20:48:11 0° 28° (NNE) 3,414 5.7 -10.1°
